FW6056 Navarre FL US current weather conditions

sailwx.info

Wind from 230 at 1 knots gusting 7

Air temperature 16.7° C
Dewpoint 6.5° C

Last reported at 2020-Jan-28 21:05 UTC.
Time now 2020-Jan-28 22:05 UTC

Location: N 30°27' W 086°52'.
View on Google Maps.

See reports from other nearby stations

  
Tides and Currents Weather Stations Pressure Air Temp Water Temp Dewpoint Dewpoint Depression Visibility Wind Speed Wind Dir Waves Ship Positions
date/time (UTC)wind fromknots sea level pressurealtimeterstation pressurevisibilityair tempwater tempwave heightnotes
2020-Jan-28 21:05 230 1 gusting 7 16.7
2020-Jan-28 21:00 236 1 gusting 6 16.7
2020-Jan-28 20:55 222 2 gusting 6 16.7
2020-Jan-28 20:50 201 2 gusting 6 16.7
2020-Jan-28 20:45 177 2 gusting 6 16.7
2020-Jan-28 20:40 161 1 gusting 6 16.7
2020-Jan-28 20:35 157 1 gusting 5 16.7
2020-Jan-28 20:30 161 1 gusting 4 17.2
2020-Jan-28 20:25 166 1 gusting 6 16.7
2020-Jan-28 20:20 165 1 gusting 6 16.7
2020-Jan-28 20:15 158 1 gusting 6 17.2
2020-Jan-28 20:10 168 2 gusting 6 17.2
2020-Jan-28 20:05 178 1 gusting 6 17.2
2020-Jan-28 20:00 166 2 gusting 8 17.8
2020-Jan-28 19:55 161 2 gusting 8 17.2
2020-Jan-28 19:50 155 1 gusting 7 17.2
2020-Jan-28 19:45 138 1 gusting 6 17.8
2020-Jan-28 19:40 149 1 gusting 6 17.8
2020-Jan-28 19:35 168 2 gusting 7 17.8
2020-Jan-28 19:30 165 2 gusting 8 17.8
2020-Jan-28 19:25 158 2 gusting 8 17.8
2020-Jan-28 19:20 142 1 gusting 6 17.8
2020-Jan-28 19:15 133 2 gusting 6 17.8
2020-Jan-28 19:10 140 2 gusting 8 17.8
2020-Jan-28 19:05 153 1 gusting 8 17.8
2020-Jan-28 19:00 164 1 gusting 8 17.8
2020-Jan-28 18:55 166 1 gusting 8 17.8
2020-Jan-28 18:50 154 1 gusting 9 17.8
2020-Jan-28 18:45 144 2 gusting 9 17.8
2020-Jan-28 18:40 156 2 gusting 7 17.8
2020-Jan-28 18:35 139 2 gusting 7 17.8
2020-Jan-28 18:30 123 1 gusting 6 17.8
2020-Jan-28 18:25 114 1 gusting 7 17.8
2020-Jan-28 18:20 103 1 gusting 7 17.8
2020-Jan-28 18:15 103 2 gusting 7 17.8
2020-Jan-28 18:10 108 2 gusting 7 17.8
2020-Jan-28 18:05 111 3 gusting 10 17.8
2020-Jan-28 18:00 109 2 gusting 10 17.8
2020-Jan-28 17:55 089 1 gusting 8 17.8
2020-Jan-28 17:50 098 3 gusting 8 17.2
2020-Jan-28 17:45 098 2 gusting 7 17.2
2020-Jan-28 17:40 078 1 gusting 6 17.8
2020-Jan-28 17:35 086 2 gusting 6 17.2
2020-Jan-28 17:30 094 3 gusting 9 17.2
2020-Jan-28 17:25 090 4 gusting 9 17.2
2020-Jan-28 17:20 086 2 gusting 8 16.7
2020-Jan-28 17:15 081 1 gusting 7 17.2
2020-Jan-28 17:10 089 2 gusting 11 16.7
2020-Jan-28 17:05 092 3 gusting 11 16.7
2020-Jan-28 17:00 089 3 gusting 10 16.7
2020-Jan-28 16:55 087 1 gusting 10 16.7
2020-Jan-28 16:50 072 1 gusting 6 16.1
2020-Jan-28 16:45 075 1 gusting 7 16.1
2020-Jan-28 16:40 093 2 gusting 8 15.6
2020-Jan-28 16:35 093 3 gusting 8 15.6
2020-Jan-28 16:30 087 2 gusting 8 15.6
2020-Jan-28 16:25 083 2 gusting 8 15.6
2020-Jan-28 16:20 091 1 gusting 6 15.6
2020-Jan-28 16:15 090 3 gusting 9 15.0
2020-Jan-28 16:10 089 3 gusting 9 15.0
2020-Jan-28 16:05 091 2 gusting 8 15.0
2020-Jan-28 16:00 090 1 gusting 6 14.4
2020-Jan-28 15:55 088 1 gusting 6 13.9
2020-Jan-28 15:50 076 0 gusting 6 14.4
2020-Jan-28 15:45 095 0 gusting 5 13.9
2020-Jan-28 15:40 096 0 gusting 5 13.9
2020-Jan-28 15:35 072 0 gusting 3 13.3
2020-Jan-28 15:30 069 0 gusting 6 12.8
2020-Jan-28 15:25 063 0 gusting 6 12.2
2020-Jan-28 15:20 061 0 gusting 4 12.2
2020-Jan-28 15:15 075 12.2
2020-Jan-28 15:10 081 0 gusting 3 11.7
2020-Jan-28 15:05 094 0 gusting 4 11.1
2020-Jan-28 15:00 098 0 gusting 4 11.1
2020-Jan-28 14:55 086 11.1
2020-Jan-28 14:50 061 10.6
2020-Jan-28 14:45 063 10.6
2020-Jan-28 14:40 061 10.0
2020-Jan-28 14:35 060 10.0
2020-Jan-28 14:30 047 9.4
2020-Jan-28 14:25 053 9.4
2020-Jan-28 14:20 055 8.9
2020-Jan-28 14:15 062 8.9
2020-Jan-28 14:10 062 8.3
2020-Jan-28 14:05 056 8.3
2020-Jan-28 14:00 060 7.8
2020-Jan-28 13:55 063 7.8
2020-Jan-28 13:50 061 7.8
2020-Jan-28 13:45 051 7.2
2020-Jan-28 13:40 7.2
2020-Jan-28 13:35 6.7
2020-Jan-28 13:30 6.7
2020-Jan-28 13:25 6.7
2020-Jan-28 13:20 6.1
2020-Jan-28 13:15 6.1
2020-Jan-28 13:10 6.1
2020-Jan-28 13:05 6.1
2020-Jan-28 13:00 6.1
2020-Jan-28 12:55 6.1
2020-Jan-28 12:50 6.1
2020-Jan-28 12:45 6.1
2020-Jan-28 12:40 6.1
2020-Jan-28 12:35 5.6
2020-Jan-28 12:30 5.6
2020-Jan-28 12:25 5.6
2020-Jan-28 12:20 5.6
2020-Jan-28 12:15 5.6
2020-Jan-28 12:10 5.6
2020-Jan-28 12:05 5.6
2020-Jan-28 12:00 5.6
2020-Jan-28 11:55 5.6
2020-Jan-28 11:50 5.6
2020-Jan-28 11:45 6.1
2020-Jan-28 11:40 6.1
2020-Jan-28 11:35 6.1
2020-Jan-28 11:30 5.6
2020-Jan-28 11:25 6.1
2020-Jan-28 11:20 6.1
2020-Jan-28 11:15 6.1
2020-Jan-28 11:10 6.1
2020-Jan-28 11:05 6.1
2020-Jan-28 11:00 6.1
2020-Jan-28 10:55 6.1
2020-Jan-28 10:50 6.1
2020-Jan-28 10:45 6.1
2020-Jan-28 10:40 6.1
2020-Jan-28 10:35 6.1
2020-Jan-28 10:30 6.1
2020-Jan-28 10:25 6.1
2020-Jan-28 10:20 6.1
2020-Jan-28 10:15 6.1
2020-Jan-28 10:10 6.1
2020-Jan-28 10:05 007 6.7
2020-Jan-28 10:00 007 6.7
2020-Jan-28 09:55 006 6.7
2020-Jan-28 09:50 006 6.7
2020-Jan-28 09:45 003 6.7
2020-Jan-28 09:40 002 6.7
2020-Jan-28 09:35 001 6.7
2020-Jan-28 09:30 005 6.7
2020-Jan-28 09:25 005 6.7
2020-Jan-28 09:20 6.7
2020-Jan-28 09:15 6.7
2020-Jan-28 09:10 6.7
2020-Jan-28 09:05 6.7
2020-Jan-28 09:00 6.7
2020-Jan-28 08:55 6.7
2020-Jan-28 08:50 6.7
2020-Jan-28 08:45 6.7
2020-Jan-28 08:40 351 6.7
2020-Jan-28 08:35 351 6.7
2020-Jan-28 08:30 6.7
2020-Jan-28 08:25 6.7
2020-Jan-28 08:20 6.7
2020-Jan-28 08:15 6.7
2020-Jan-28 08:10 6.7
2020-Jan-28 08:05 6.7
2020-Jan-28 08:00 7.2
2020-Jan-28 07:55 6.7
2020-Jan-28 07:50 353 6.7
2020-Jan-28 07:45 353 6.7
2020-Jan-28 07:40 6.7
2020-Jan-28 07:35 7.2
2020-Jan-28 07:30 348 7.2
2020-Jan-28 07:25 342 7.2
2020-Jan-28 07:20 350 7.2
2020-Jan-28 07:15 352 7.2
2020-Jan-28 07:10 351 7.2
2020-Jan-28 07:05 357 7.2
2020-Jan-28 07:00 005 7.2
2020-Jan-28 06:55 006 7.2
2020-Jan-28 06:50 001 7.2
2020-Jan-28 06:45 7.2
2020-Jan-28 06:40 7.2
2020-Jan-28 06:35 7.2
2020-Jan-28 06:30 7.2
2020-Jan-28 06:25 7.2
2020-Jan-28 06:20 7.2
2020-Jan-28 06:15 7.2
2020-Jan-28 06:10 346 7.2
2020-Jan-28 06:05 346 7.8
2020-Jan-28 06:00 7.8
2020-Jan-28 05:55 7.8
2020-Jan-28 05:50 7.8
2020-Jan-28 05:45 7.8
2020-Jan-28 05:40 7.8
2020-Jan-28 05:35 346 7.8
2020-Jan-28 05:30 346 7.8
2020-Jan-28 05:25 346 7.8
2020-Jan-28 05:20 7.8
2020-Jan-28 05:15 355 7.8
2020-Jan-28 05:10 355 7.8
2020-Jan-28 05:05 354 7.8
2020-Jan-28 05:00 355 7.8
2020-Jan-28 04:55 358 7.8
2020-Jan-28 04:50 355 7.8
2020-Jan-28 04:45 7.2
2020-Jan-28 04:40 6.7
2020-Jan-28 04:35 7.2
2020-Jan-28 04:30 7.2
2020-Jan-28 04:25 7.2
2020-Jan-28 04:20 7.8
2020-Jan-28 04:15 7.8
2020-Jan-28 04:10 7.8
2020-Jan-28 04:05 8.3
2020-Jan-28 04:00 337 8.3
2020-Jan-28 03:55 337 0 gusting 2 8.3
2020-Jan-28 03:50 340 0 gusting 2 7.8
2020-Jan-28 03:45 347 7.8
2020-Jan-28 03:40 7.8
2020-Jan-28 03:35 8.3
2020-Jan-28 03:30 8.3
2020-Jan-28 03:25 8.3
2020-Jan-28 03:20 8.9
2020-Jan-28 03:15 8.9
2020-Jan-28 03:10 8.9
2020-Jan-28 03:05 8.9
2020-Jan-28 03:00 349 8.9
2020-Jan-28 02:55 352 8.9
2020-Jan-28 02:50 005 9.4
2020-Jan-28 02:45 015 9.4
2020-Jan-28 02:40 013 9.4
2020-Jan-28 02:35 001 9.4
2020-Jan-28 02:30 357 9.4
2020-Jan-28 02:25 355 9.4
2020-Jan-28 02:20 9.4
2020-Jan-28 02:15 9.4
2020-Jan-28 02:10 9.4
2020-Jan-28 02:05 352 9.4
2020-Jan-28 02:00 354 9.4
2020-Jan-28 01:55 357 10.0
2020-Jan-28 01:50 004 10.0
2020-Jan-28 01:45 002 10.0
2020-Jan-28 01:40 001 10.0
2020-Jan-28 01:35 006 10.0
2020-Jan-28 01:30 10.0
2020-Jan-28 01:25 355 10.0
2020-Jan-28 01:20 354 10.0
2020-Jan-28 01:15 353 10.0
2020-Jan-28 01:10 355 10.0
2020-Jan-28 01:05 10.0
2020-Jan-28 01:00 341 10.6
2020-Jan-28 00:55 346 10.6
2020-Jan-28 00:50 344 0 gusting 2 10.6
2020-Jan-28 00:45 341 1 gusting 2 10.6
2020-Jan-28 00:40 341 0 gusting 2 10.6
2020-Jan-28 00:35 343 10.6
2020-Jan-28 00:30 343 10.6
2020-Jan-28 00:25 343 10.6
2020-Jan-28 00:20 10.6
2020-Jan-28 00:15 11.1
2020-Jan-28 00:10 11.1
2020-Jan-28 00:05 11.1
2020-Jan-28 00:00 001 11.7
2020-Jan-27 23:55 001 11.7
2020-Jan-27 23:50 358 11.7
2020-Jan-27 23:45 340 12.2
2020-Jan-27 23:40 359 12.2
2020-Jan-27 23:35 358 12.2
2020-Jan-27 23:30 352 0 gusting 5 12.2
2020-Jan-27 23:25 358 0 gusting 5 12.2
2020-Jan-27 23:20 358 0 gusting 3 12.2
2020-Jan-27 23:15 358 0 gusting 3 12.2
2020-Jan-27 23:10 358 0 gusting 4 12.2
2020-Jan-27 23:05 003 0 gusting 4 12.2
2020-Jan-27 23:00 005 0 gusting 4 12.8
2020-Jan-27 22:55 002 0 gusting 6 12.8
2020-Jan-27 22:50 008 0 gusting 6 12.8
2020-Jan-27 22:45 005 1 gusting 6 12.8
2020-Jan-27 22:40 002 2 gusting 9 12.8
2020-Jan-27 22:35 003 2 gusting 9 12.8
2020-Jan-27 22:30 355 2 gusting 7 12.8
2020-Jan-27 22:25 352 1 gusting 7 13.3
2020-Jan-27 22:20 353 1 gusting 8 13.3
2020-Jan-27 22:15 350 0 gusting 8 13.3
2020-Jan-27 22:10 350 1 gusting 6 13.3
2020-Jan-27 22:05 351 1 gusting 8 13.3
2020-Jan-27 22:00 350 1 gusting 8 13.3
2020-Jan-27 21:55 354 1 gusting 6 13.3
2020-Jan-27 21:50 354 0 gusting 4 13.3
2020-Jan-27 21:45 348 1 gusting 6 13.3
2020-Jan-27 21:40 351 0 gusting 6 13.3
2020-Jan-27 21:35 003 0 gusting 6 13.3
2020-Jan-27 21:30 024 0 gusting 4 13.3
2020-Jan-27 21:25 003 0 gusting 6 13.3
2020-Jan-27 21:20 349 1 gusting 7 13.3
2020-Jan-27 21:15 347 2 gusting 7 13.3
2020-Jan-27 21:10 349 2 gusting 7 13.3
2020-Jan-27 21:05 351 1 gusting 6 13.3
2020-Jan-27 21:00 351 1 gusting 6 13.9
2020-Jan-27 20:55 346 0 gusting 6 13.9
2020-Jan-27 20:50 350 1 gusting 8 13.9
2020-Jan-27 20:45 352 3 gusting 8 13.9
2020-Jan-27 20:40 348 2 gusting 7 14.4
2020-Jan-27 20:35 354 1 gusting 7 14.4
2020-Jan-27 20:30 005 1 gusting 6 14.4
2020-Jan-27 20:25 005 1 gusting 6 15.0
2020-Jan-27 20:20 359 1 gusting 7 15.0
2020-Jan-27 20:15 357 0 gusting 7 15.0
2020-Jan-27 20:10 357 1 gusting 7 15.6
2020-Jan-27 20:05 350 2 gusting 7 15.6
2020-Jan-27 20:00 342 1 gusting 9 15.6
2020-Jan-27 19:55 353 15.6
2020-Jan-27 19:50 004 0 gusting 2 15.6
2020-Jan-27 19:45 358 0 gusting 5 16.1
2020-Jan-27 19:40 356 0 gusting 6 16.7
2020-Jan-27 19:35 353 0 gusting 6 16.1
2020-Jan-27 19:30 356 0 gusting 9 15.6
2020-Jan-27 19:25 358 0 gusting 9 15.6
2020-Jan-27 19:20 055 0 gusting 3 15.6
2020-Jan-27 19:15 037 0 gusting 6 15.6
2020-Jan-27 19:10 001 2 gusting 8 15.6
2020-Jan-27 19:05 344 3 gusting 8 16.7
2020-Jan-27 19:00 344 2 gusting 8 16.7
2020-Jan-27 18:55 343 2 gusting 9 17.2
2020-Jan-27 18:50 346 2 gusting 9 16.1
2020-Jan-27 18:45 354 1 gusting 6 16.1
2020-Jan-27 18:40 352 1 gusting 7 17.2
2020-Jan-27 18:35 356 1 gusting 7 17.2
2020-Jan-27 18:30 001 0 gusting 6 16.7
2020-Jan-27 18:25 359 0 gusting 6 16.7
2020-Jan-27 18:20 345 1 gusting 8 17.2
2020-Jan-27 18:15 344 1 gusting 8 17.2
2020-Jan-27 18:10 350 0 gusting 4 17.2
2020-Jan-27 18:05 006 0 gusting 3 17.2
2020-Jan-27 18:00 008 0 gusting 7 16.7
2020-Jan-27 17:55 353 1 gusting 7 16.7
2020-Jan-27 17:50 345 1 gusting 8 16.7
2020-Jan-27 17:45 350 0 gusting 8 16.7
2020-Jan-27 17:40 013 0 gusting 4 16.7
2020-Jan-27 17:35 024 0 gusting 4 16.7
2020-Jan-27 17:30 057 0 gusting 4 15.6
2020-Jan-27 17:25 083 0 gusting 5 15.6
2020-Jan-27 17:20 083 0 gusting 5 15.6
2020-Jan-27 17:15 070 0 gusting 3 15.0
2020-Jan-27 17:10 079 0 gusting 6 15.6
2020-Jan-27 17:05 031 0 gusting 6 15.0
2020-Jan-27 17:00 005 0 gusting 5 15.0
2020-Jan-27 16:55 016 15.0
2020-Jan-27 16:50 013 14.4
2020-Jan-27 16:45 063 14.4
2020-Jan-27 16:40 062 13.9
2020-Jan-27 16:35 356 13.3
2020-Jan-27 16:30 352 13.3
2020-Jan-27 16:25 016 12.8
2020-Jan-27 16:20 023 12.2
2020-Jan-27 16:15 038 12.2
2020-Jan-27 16:10 346 11.7
2020-Jan-27 16:05 352 11.7
2020-Jan-27 16:00 007 11.1
2020-Jan-27 15:55 358 11.1
2020-Jan-27 15:50 353 11.1
2020-Jan-27 15:45 014 11.1
2020-Jan-27 15:40 045 10.6
2020-Jan-27 15:35 054 10.6
2020-Jan-27 15:30 051 10.6
2020-Jan-27 15:25 027 10.6
2020-Jan-27 15:20 030 10.6
2020-Jan-27 15:15 050 10.0
2020-Jan-27 15:10 039 10.0
2020-Jan-27 15:05 037 10.0
2020-Jan-27 15:00 050 10.0
2020-Jan-27 14:55 031 9.4
2020-Jan-27 14:50 023 9.4
2020-Jan-27 14:45 038 9.4
2020-Jan-27 14:40 050 9.4
2020-Jan-27 14:35 057 9.4
2020-Jan-27 14:30 042 8.9
2020-Jan-27 14:25 027 8.9
2020-Jan-27 14:20 020 8.9
2020-Jan-27 14:15 012 8.9
2020-Jan-27 14:10 003 8.9
2020-Jan-27 14:05 017 8.9
2020-Jan-27 14:00 055 8.9
2020-Jan-27 13:55 059 8.9
2020-Jan-27 13:50 015 8.9
2020-Jan-27 13:45 010 8.9
2020-Jan-27 13:40 033 8.9
2020-Jan-27 13:35 068 8.9
2020-Jan-27 13:30 062 8.9
2020-Jan-27 13:25 036 8.9
2020-Jan-27 13:20 026 8.9
2020-Jan-27 13:15 004 8.9
2020-Jan-27 13:10 026 8.9
2020-Jan-27 13:05 028 8.9
2020-Jan-27 13:00 012 8.9
2020-Jan-27 12:55 045 8.9
2020-Jan-27 12:50 061 8.9
2020-Jan-27 12:45 058 8.9
2020-Jan-27 12:40 026 8.9
2020-Jan-27 12:35 001 8.9
2020-Jan-27 12:30 356 8.9
2020-Jan-27 12:25 034 9.4
2020-Jan-27 12:20 070 9.4
2020-Jan-27 12:15 062 9.4
2020-Jan-27 12:10 067 9.4
2020-Jan-27 12:05 064 9.4
2020-Jan-27 12:00 057 9.4
2020-Jan-27 11:55 053 9.4
2020-Jan-27 11:50 062 8.9
2020-Jan-27 11:45 068 9.4
2020-Jan-27 11:40 057 8.9
2020-Jan-27 11:35 057 8.9
2020-Jan-27 11:30 060 8.9
2020-Jan-27 11:25 075 8.9
2020-Jan-27 11:20 063 8.9
2020-Jan-27 11:15 057 8.9
2020-Jan-27 11:10 062 8.9
2020-Jan-27 11:05 071 8.9
2020-Jan-27 11:00 072 8.9
2020-Jan-27 10:55 050 8.9
2020-Jan-27 10:50 046 8.9
2020-Jan-27 10:45 078 8.9
2020-Jan-27 10:40 071 8.9
2020-Jan-27 10:35 061 8.9
2020-Jan-27 10:30 057 8.9
2020-Jan-27 10:25 062 8.9
2020-Jan-27 10:20 084 0 gusting 3 8.9
2020-Jan-27 10:15 088 0 gusting 3 8.9
2020-Jan-27 10:10 082 0 gusting 4 8.9
2020-Jan-27 10:05 074 8.9
2020-Jan-27 10:00 068 8.9
2020-Jan-27 09:55 067 8.9
2020-Jan-27 09:50 062 8.9
2020-Jan-27 09:45 061 8.9
2020-Jan-27 09:40 092 8.9
2020-Jan-27 09:35 071 8.9
2020-Jan-27 09:30 067 0 gusting 2 8.9
2020-Jan-27 09:25 067 0 gusting 2 8.9
2020-Jan-27 09:20 059 0 gusting 3 8.9
2020-Jan-27 09:15 065 0 gusting 3 8.9
2020-Jan-27 09:10 076 8.9
2020-Jan-27 09:05 071 8.9
2020-Jan-27 09:00 065 8.9
2020-Jan-27 08:55 071 8.9
2020-Jan-27 08:50 071 8.9
2020-Jan-27 08:45 073 8.9
2020-Jan-27 08:40 071 8.9
2020-Jan-27 08:35 059 8.9
2020-Jan-27 08:30 048 8.9
2020-Jan-27 08:25 054 8.9
2020-Jan-27 08:20 060 8.9
2020-Jan-27 08:15 083 8.9
2020-Jan-27 08:10 076 8.9
2020-Jan-27 08:05 071 9.4
2020-Jan-27 08:00 084 0 gusting 2 9.4
2020-Jan-27 07:55 073 0 gusting 6 9.4
2020-Jan-27 07:50 065 0 gusting 6 9.4
2020-Jan-27 07:45 069 0 gusting 3 9.4
2020-Jan-27 07:40 085 0 gusting 3 9.4
2020-Jan-27 07:35 083 0 gusting 4 9.4
2020-Jan-27 07:30 077 0 gusting 4 9.4
2020-Jan-27 07:25 075 0 gusting 4 9.4
2020-Jan-27 07:20 075 0 gusting 2 9.4
2020-Jan-27 07:15 084 0 gusting 2 9.4
2020-Jan-27 07:10 081 0 gusting 7 9.4
2020-Jan-27 07:05 079 0 gusting 7 9.4
2020-Jan-27 07:00 089 0 gusting 7 9.4
2020-Jan-27 06:55 087 1 gusting 7 9.4
2020-Jan-27 06:50 081 1 gusting 5 9.4
2020-Jan-27 06:45 076 0 gusting 4 9.4
2020-Jan-27 06:40 082 0 gusting 5 9.4
2020-Jan-27 06:35 088 0 gusting 5 9.4
2020-Jan-27 06:30 080 0 gusting 4 9.4
2020-Jan-27 06:25 090 0 gusting 3 9.4
2020-Jan-27 06:20 088 0 gusting 3 9.4
2020-Jan-27 06:15 081 0 gusting 3 9.4
2020-Jan-27 06:10 081 0 gusting 4 9.4
2020-Jan-27 06:05 079 0 gusting 4 9.4
2020-Jan-27 06:00 085 9.4
2020-Jan-27 05:55 079 0 gusting 3 9.4
2020-Jan-27 05:50 080 1 gusting 5 9.4
2020-Jan-27 05:45 083 1 gusting 6 9.4
2020-Jan-27 05:40 086 1 gusting 6 9.4
2020-Jan-27 05:35 089 1 gusting 10 9.4
2020-Jan-27 05:30 088 1 gusting 10 9.4
2020-Jan-27 05:25 084 1 gusting 7 9.4
2020-Jan-27 05:20 084 1 gusting 6 9.4
2020-Jan-27 05:15 088 0 gusting 5 9.4
2020-Jan-27 05:10 089 0 gusting 5 9.4
2020-Jan-27 05:05 084 0 gusting 5 9.4
2020-Jan-27 05:00 078 1 gusting 5 9.4
2020-Jan-27 04:55 078 1 gusting 3 9.4
2020-Jan-27 04:50 079 0 gusting 5 8.9
2020-Jan-27 04:45 078 0 gusting 5 9.4
2020-Jan-27 04:40 079 0 gusting 5 9.4
2020-Jan-27 04:35 082 0 gusting 5 8.9
2020-Jan-27 04:30 082 1 gusting 7 9.4
2020-Jan-27 04:25 081 1 gusting 7 9.4
2020-Jan-27 04:20 081 1 gusting 6 9.4
2020-Jan-27 04:15 080 1 gusting 5 9.4
2020-Jan-27 04:10 079 1 gusting 5 9.4
2020-Jan-27 04:05 086 1 gusting 6 9.4
2020-Jan-27 04:00 090 1 gusting 6 9.4
2020-Jan-27 03:55 087 1 gusting 6 9.4
2020-Jan-27 03:50 084 1 gusting 6 9.4
2020-Jan-27 03:45 085 1 gusting 6 9.4
2020-Jan-27 03:40 090 0 gusting 5 9.4
2020-Jan-27 03:35 091 0 gusting 5 9.4
2020-Jan-27 03:30 091 0 gusting 6 8.9
2020-Jan-27 03:25 094 1 gusting 6 9.4
2020-Jan-27 03:20 090 1 gusting 6 9.4
2020-Jan-27 03:15 088 1 gusting 6 9.4
2020-Jan-27 03:10 090 0 gusting 5 9.4
2020-Jan-27 03:05 088 0 gusting 5 9.4
2020-Jan-27 03:00 087 1 gusting 5 9.4
2020-Jan-27 02:55 085 0 gusting 6 9.4
2020-Jan-27 02:50 084 1 gusting 6 8.9
2020-Jan-27 02:45 089 1 gusting 8 9.4
2020-Jan-27 02:40 088 1 gusting 8 9.4
2020-Jan-27 02:35 078 0 gusting 3 9.4
2020-Jan-27 02:30 073 1 gusting 7 8.9
2020-Jan-27 02:25 073 1 gusting 7 8.9
2020-Jan-27 02:20 078 0 gusting 6 8.9
2020-Jan-27 02:15 080 0 gusting 5 8.9
2020-Jan-27 02:10 080 1 gusting 6 8.9
2020-Jan-27 02:05 079 1 gusting 6 8.9
2020-Jan-27 02:00 077 0 gusting 6 8.9
2020-Jan-27 01:55 078 0 gusting 6 8.9
2020-Jan-27 01:50 080 1 gusting 6 8.9
2020-Jan-27 01:45 081 1 gusting 5 8.9
2020-Jan-27 01:40 083 1 gusting 6 8.9
2020-Jan-27 01:35 085 1 gusting 6 8.9
2020-Jan-27 01:30 086 0 gusting 6 8.9
2020-Jan-27 01:25 085 0 gusting 3 8.9
2020-Jan-27 01:20 083 9.4
2020-Jan-27 01:15 087 9.4
2020-Jan-27 01:10 090 0 gusting 3 9.4
2020-Jan-27 01:05 083 1 gusting 9 8.9
2020-Jan-27 01:00 091 3 gusting 9 8.9
2020-Jan-27 00:55 094 2 gusting 8 8.9
2020-Jan-27 00:50 082 0 gusting 6 8.9
2020-Jan-27 00:45 095 1 gusting 5 8.9
2020-Jan-27 00:40 098 1 gusting 6 8.9
2020-Jan-27 00:35 092 1 gusting 6 8.9
2020-Jan-27 00:30 093 2 gusting 6 8.9
2020-Jan-27 00:25 095 2 gusting 6 8.9
2020-Jan-27 00:20 092 0 gusting 6 8.9
2020-Jan-27 00:15 010 0 gusting 6 8.9
2020-Jan-27 00:10 359 2 gusting 6 8.9
2020-Jan-27 00:05 064 3 gusting 11 8.9
2020-Jan-27 00:00 091 4 gusting 11 8.9
2020-Jan-26 23:55 099 3 gusting 8 8.9
2020-Jan-26 23:50 101 4 gusting 10 8.9
2020-Jan-26 23:45 095 2 gusting 10 8.9
2020-Jan-26 23:40 093 3 gusting 8 8.9
2020-Jan-26 23:35 096 3 gusting 8 8.9
2020-Jan-26 23:30 093 2 gusting 8 8.9
2020-Jan-26 23:25 090 2 gusting 7 8.9
2020-Jan-26 23:20 090 2 gusting 7 8.9
2020-Jan-26 23:15 099 2 gusting 7 8.9
2020-Jan-26 23:10 104 2 gusting 6 8.9
2020-Jan-26 23:05 098 2 gusting 6 8.9
2020-Jan-26 23:00 098 0 gusting 5 8.9
2020-Jan-26 22:55 092 8.9
2020-Jan-26 22:50 089 8.9
2020-Jan-26 22:45 082 8.9
2020-Jan-26 22:40 081 8.9
2020-Jan-26 22:35 074 8.9
2020-Jan-26 22:30 069 8.3
2020-Jan-26 22:25 063 8.3
2020-Jan-26 22:20 034 8.3
2020-Jan-26 22:15 090 0 gusting 7 8.9
2020-Jan-26 22:10 101 3 gusting 7 8.9
2020-Jan-26 22:05 105 4 gusting 7 8.9
2020-Jan-26 22:00 106 3 gusting 7 8.9